This is the latest recevied weather packets stored in our database for station/object AE5HO. If no packets are shown the sender has not sent any weather packets the latest 1 day(s).
| Time | Temp. | Humidity | Pressure | Rain* | Wind** | Luminosity | Snow |
|---|---|---|---|---|---|---|---|
| 1777980021 | 21.67° C | 89% | 1003.8 hPa | 0 mm | 0 m/s | 0 W/m² | - |
| 1777979714 | 21.67° C | 89% | 1003.8 hPa | 0 mm | 1.34 m/s, 270° | 0 W/m² | - |
| 1777979410 | 21.67° C | 89% | 1003.8 hPa | 0 mm | 0 m/s | 0 W/m² | - |
| 1777979107 | 21.67° C | 88% | 1004.2 hPa | 0 mm | 0 m/s | 0 W/m² | - |
| 1777978804 | 21.67° C | 88% | 1003.9 hPa | 0 mm | 0.89 m/s, 190° | 0 W/m² | - |
| 1777978501 | 21.67° C | 87% | 1004.1 hPa | 0 mm | 0 m/s | 0 W/m² | - |
| 1777978196 | 21.67° C | 87% | 1004 hPa | 0 mm | 0.45 m/s, 270° | 0 W/m² | - |
| 1777977894 | 21.67° C | 87% | 1003.7 hPa | 0 mm | 0.89 m/s, 184° | 0 W/m² | - |
| 1777977590 | 21.67° C | 87% | 1003.7 hPa | 0 mm | 0 m/s | 0 W/m² | - |
| 1777977288 | 21.67° C | 86% | 1003.8 hPa | 0 mm | 0.89 m/s, 90° | 0 W/m² | - |
| 1777976985 | 21.67° C | 86% | 1003.8 hPa | 0 mm | 0 m/s | 0 W/m² | - |
| 1777976682 | 21.67° C | 86% | 1003.9 hPa | 0 mm | 0.89 m/s, 212° | 0 W/m² | - |
| 1777976380 | 21.67° C | 86% | 1003.7 hPa | 0 mm | 0.89 m/s, 217° | 0 W/m² | - |
| 1777976078 | 21.67° C | 86% | 1003.9 hPa | 0 mm | 0.45 m/s, 264° | 0 W/m² | - |
| 1777975774 | 21.67° C | 86% | 1004 hPa | 0 mm | 0.89 m/s, 278° | 0 W/m² | - |
| 1777975471 | 21.67° C | 86% | 1004.2 hPa | 0 mm | 1.34 m/s, 239° | 0 W/m² | - |
| 1777975167 | 21.67° C | 86% | 1004.1 hPa | 0 mm | 1.34 m/s, 261° | 0 W/m² | - |
| 1777974864 | 21.67° C | 86% | 1004.3 hPa | 0 mm | 0 m/s | 0 W/m² | - |
| 1777974560 | 22.22° C | 86% | 1004.1 hPa | 0 mm | 0.45 m/s, 270° | 0 W/m² | - |
| 1777974258 | 22.22° C | 86% | 1004.1 hPa | 0 mm | 0 m/s | 0 W/m² | - |
| 1777973953 | 22.22° C | 85% | 1003.8 hPa | 0 mm | 0 m/s | 0 W/m² | - |
| 1777973650 | 22.22° C | 85% | 1004 hPa | 0 mm | 0 m/s | 0 W/m² | - |
| 1777973348 | 22.22° C | 85% | 1003.9 hPa | 0 mm | 0 m/s | 0 W/m² | - |
| 1777973046 | 22.22° C | 85% | 1004 hPa | 0 mm | 0.89 m/s, 196° | 0 W/m² | - |
| 1777972743 | 22.22° C | 85% | 1004 hPa | 0 mm | 0.89 m/s, 261° | 0 W/m² | - |
* Rain latest hour (hover to see other rain measurements)
** Current wind speed in m/s (hover to see current wind gust speed)